This is the latest recevied weather packets stored in our database for station/object KC8PTQ. If no packets are shown the sender has not sent any weather packets the latest 10 day(s).
| Time | Temp. | Humidity | Pressure | Rain* | Wind** | Luminosity | Snow |
|---|---|---|---|---|---|---|---|
| 1778326849 | 11.11° C | 99% | 1008.8 hPa | 0 mm | - | 21 W/m² | - |
| 1778326546 | 11.11° C | 99% | 1008.6 hPa | 0 mm | - | 29 W/m² | - |
| 1778326244 | 11.11° C | 99% | 1008.8 hPa | 0 mm | - | 28 W/m² | - |
| 1778325940 | 11.11° C | 99% | 1008.6 hPa | 0 mm | - | 23 W/m² | - |
| 1778325637 | 11.11° C | 99% | 1008.7 hPa | 0 mm | - | 20 W/m² | - |
| 1778325334 | 11.11° C | 99% | 1008.6 hPa | 0 mm | - | 13 W/m² | - |
| 1778325031 | 11.11° C | 99% | 1008.6 hPa | 0 mm | - | 11 W/m² | - |
| 1778324728 | 11.11° C | 99% | 1008.4 hPa | 0 mm | - | 9 W/m² | - |
| 1778324425 | 11.11° C | 99% | 1008.4 hPa | 0 mm | - | 5 W/m² | - |
| 1778324124 | 11.11° C | 99% | 1008.4 hPa | 0 mm | - | 3 W/m² | - |
| 1778323821 | 11.11° C | 99% | 1008.6 hPa | 0 mm | - | 3 W/m² | - |
| 1778323518 | 11.11° C | 99% | 1008.6 hPa | 0 mm | - | 3 W/m² | - |
| 1778323215 | 11.11° C | 99% | 1008.4 hPa | 0 mm | - | 3 W/m² | - |
| 1778322912 | 11.11° C | 99% | 1008.4 hPa | 0 mm | - | 2 W/m² | - |
| 1778322610 | 11.11° C | 99% | 1008.4 hPa | 0 mm | - | 1 W/m² | - |
| 1778322307 | 11.11° C | 99% | 1008.2 hPa | 0 mm | - | 0 W/m² | - |
| 1778322004 | 11.11° C | 99% | 1008.3 hPa | 0 mm | - | 0 W/m² | - |
| 1778321700 | 11.11° C | 99% | 1008.4 hPa | 0 mm | - | 0 W/m² | - |
| 1778321397 | 11.11° C | 99% | 1008.4 hPa | 0 mm | - | 0 W/m² | - |
| 1778321094 | 11.11° C | 99% | 1008.4 hPa | 0 mm | - | 0 W/m² | - |
| 1778320791 | 10.56° C | 99% | 1008.3 hPa | 0 mm | - | 0 W/m² | - |
| 1778320488 | 10.56° C | 99% | 1008.4 hPa | 0 mm | - | 0 W/m² | - |
| 1778320185 | 10.56° C | 99% | 1008.7 hPa | 0 mm | - | 0 W/m² | - |
| 1778319882 | 10.56° C | 99% | 1008.6 hPa | 0 mm | - | 0 W/m² | - |
| 1778319579 | 10.56° C | 99% | 1008.6 hPa | 0 mm | - | 0 W/m² | - |
* Rain latest hour (hover to see other rain measurements)
** Current wind speed in m/s (hover to see current wind gust speed)